EXS94Y LGIR-EGSS

Flight info

Callsign EXS94Y
Flight time 3h 57m
Altitude 36000
Route EPALO1V EPALO UM749 ATV DCT LUSES DCT BITLA DCT MAVAR DCT GACMO DCT EMKES DCT MONID DCT TUPUS DCT NEMEK DCT VEKEN/N0438F380 DCT UMVEG DCT KPT DCT VEKIR DCT ADENU L608 LIRSU DCT SPI DCT NIK DCT KOZUF DCT IMPOH DCT SASKI L608 SUMUM Y6 TOSVA TOSVA1A
Aircraft B738/M-SDFGHIJ1J3J4J7M3RWXYZ/LB1D1

Departure

Time 2026-05-04 17:29
Airport Heraklion International Nikos Kazantzakis Airport (LGIR)

Arrival

Time 2026-05-04 21:26
Airport London Stansted Airport (EGSS)
Time Latitude Longitude Altitude Speed Heading
2026-05-04 16:37 35.33872 25.17433 106 ft 0 kts 316°
2026-05-04 17:23 35.33916 25.17426 101 ft 5 kts 83°
2026-05-04 17:24 35.33912 25.17485 104 ft 8 kts 95°
2026-05-04 17:24 35.33887 25.17852 96 ft 16 kts 95°
2026-05-04 17:25 35.33877 25.17991 95 ft 15 kts 94°
2026-05-04 17:25 35.33860 25.18245 98 ft 13 kts 95°
2026-05-04 17:26 35.33842 25.18491 100 ft 13 kts 95°
2026-05-04 17:26 35.33818 25.18853 96 ft 9 kts 95°
2026-05-04 17:27 35.33855 25.18993 87 ft 5 kts 54°
2026-05-04 17:27 35.33902 25.19033 81 ft 1 kts 295°
2026-05-04 17:28 35.33904 25.19026 82 ft 0 kts 278°
2026-05-04 17:29 35.34005 25.17595 88 ft 142 kts 274°
2026-05-04 17:29 35.34944 25.13744 1629 ft 172 kts 327°
2026-05-04 17:30 35.38366 25.12421 3313 ft 174 kts 343°
2026-05-04 17:31 35.40866 25.11577 4043 ft 203 kts 343°
2026-05-04 17:31 35.45245 25.10078 5585 ft 233 kts 344°
2026-05-04 17:32 35.48513 25.08958 6695 ft 249 kts 344°
2026-05-04 17:33 35.53621 25.07206 8752 ft 257 kts 344°
2026-05-04 17:33 35.55366 25.06607 9424 ft 260 kts 344°
2026-05-04 17:34 35.60732 25.04679 10876 ft 286 kts 339°
2026-05-04 17:34 35.62614 25.03663 11228 ft 300 kts 335°
2026-05-04 17:35 35.68370 24.99994 12989 ft 318 kts 333°
2026-05-04 17:35 35.72327 24.97428 14272 ft 325 kts 334°
2026-05-04 17:35 35.74332 24.96128 14984 ft 327 kts 334°
2026-05-04 17:36 35.76373 24.94805 15647 ft 331 kts 334°
2026-05-04 17:36 35.78409 24.93484 16316 ft 333 kts 333°
2026-05-04 17:36 35.80475 24.92144 16998 ft 335 kts 334°
2026-05-04 17:36 35.82514 24.90820 17659 ft 336 kts 333°
2026-05-04 17:37 35.84595 24.89468 18313 ft 338 kts 333°
2026-05-04 17:37 35.86688 24.88108 18822 ft 343 kts 333°
2026-05-04 17:37 35.88807 24.86730 19401 ft 346 kts 334°
2026-05-04 17:37 35.90962 24.85328 19947 ft 349 kts 333°
2026-05-04 17:38 35.93127 24.83919 20469 ft 353 kts 333°
2026-05-04 17:38 35.95297 24.82505 21010 ft 355 kts 333°
2026-05-04 17:38 35.97494 24.81074 21491 ft 359 kts 333°
2026-05-04 17:38 35.99707 24.79631 22118 ft 358 kts 333°
2026-05-04 17:39 36.04136 24.76738 23090 ft 362 kts 333°
2026-05-04 17:39 36.06352 24.75288 23613 ft 363 kts 333°
2026-05-04 17:39 36.08590 24.73823 24013 ft 368 kts 333°
2026-05-04 17:40 36.10862 24.72337 24567 ft 367 kts 332°
2026-05-04 17:40 36.13047 24.70906 25201 ft 364 kts 332°
2026-05-04 17:40 36.15276 24.69444 25628 ft 366 kts 332°
2026-05-04 17:40 36.17547 24.67954 26064 ft 368 kts 333°
2026-05-04 17:41 36.19812 24.66467 26458 ft 371 kts 332°
2026-05-04 17:41 36.22094 24.64968 26928 ft 371 kts 332°
2026-05-04 17:41 36.24379 24.63468 27492 ft 369 kts 332°
2026-05-04 17:41 36.26650 24.61974 27871 ft 371 kts 332°
2026-05-04 17:42 36.28940 24.60468 28228 ft 373 kts 332°
2026-05-04 17:42 36.31253 24.58945 28598 ft 376 kts 332°
2026-05-04 17:42 36.33561 24.57424 29040 ft 375 kts 332°
2026-05-04 17:42 36.35877 24.55895 29407 ft 377 kts 332°
2026-05-04 17:43 36.38220 24.54346 29666 ft 382 kts 333°
2026-05-04 17:43 36.40554 24.52806 30069 ft 381 kts 332°
2026-05-04 17:43 36.42921 24.51243 30480 ft 381 kts 332°
2026-05-04 17:43 36.45246 24.49705 30729 ft 384 kts 332°
2026-05-04 17:44 36.47620 24.48133 30931 ft 389 kts 332°
2026-05-04 17:44 36.50039 24.46530 31251 ft 390 kts 332°
2026-05-04 17:44 36.52422 24.44951 31582 ft 390 kts 332°
2026-05-04 17:44 36.54807 24.43369 32049 ft 387 kts 332°
2026-05-04 17:45 36.57197 24.41784 32473 ft 385 kts 332°
2026-05-04 17:45 36.59542 24.40227 32776 ft 386 kts 332°
2026-05-04 17:45 36.61909 24.38654 33116 ft 385 kts 332°
2026-05-04 17:45 36.64285 24.37073 33465 ft 384 kts 332°
2026-05-04 17:46 36.66647 24.35501 33816 ft 382 kts 332°
2026-05-04 17:46 36.68882 24.34012 34078 ft 382 kts 331°
2026-05-04 17:46 36.71235 24.32443 34335 ft 382 kts 330°
2026-05-04 17:46 36.73589 24.30872 34561 ft 383 kts 331°
2026-05-04 17:47 36.75954 24.29293 34847 ft 382 kts 330°
2026-05-04 17:47 36.78287 24.27733 35068 ft 382 kts 330°
2026-05-04 17:47 36.80627 24.26170 35277 ft 383 kts 330°
2026-05-04 17:47 36.82980 24.24597 35471 ft 384 kts 330°
2026-05-04 17:48 36.85326 24.23028 35650 ft 385 kts 330°
2026-05-04 17:48 36.87717 24.21427 35823 ft 386 kts 330°
2026-05-04 17:48 36.89282 24.20378 35948 ft 386 kts 330°
2026-05-04 17:48 36.92434 24.18264 36128 ft 387 kts 330°
2026-05-04 17:49 36.97158 24.15091 36129 ft 386 kts 331°
2026-05-04 17:49 37.01879 24.11917 36139 ft 383 kts 330°
2026-05-04 17:50 37.06580 24.08752 36134 ft 385 kts 331°
2026-05-04 17:50 37.11243 24.05607 36127 ft 385 kts 331°
2026-05-04 17:51 37.15881 24.02474 36132 ft 385 kts 330°
2026-05-04 17:51 37.20605 23.99280 36131 ft 385 kts 331°
2026-05-04 17:52 37.25326 23.96084 36125 ft 384 kts 331°
2026-05-04 17:52 37.30024 23.92898 36132 ft 385 kts 331°
2026-05-04 17:53 37.34739 23.89695 36121 ft 385 kts 331°
2026-05-04 17:53 37.39468 23.86478 36125 ft 386 kts 331°
2026-05-04 17:54 37.44189 23.83263 36114 ft 386 kts 331°
2026-05-04 17:54 37.48905 23.80049 36116 ft 386 kts 331°
2026-05-04 17:55 37.53659 23.76800 36120 ft 386 kts 331°
2026-05-04 17:55 37.58378 23.73572 36114 ft 385 kts 331°
2026-05-04 17:56 37.63098 23.70338 36117 ft 387 kts 331°
2026-05-04 17:56 37.67810 23.67103 36119 ft 387 kts 331°
2026-05-04 17:57 37.72552 23.63845 36119 ft 388 kts 331°
2026-05-04 17:57 37.77295 23.60582 36116 ft 385 kts 331°
2026-05-04 17:58 37.82021 23.57326 36115 ft 388 kts 332°
2026-05-04 17:58 37.86712 23.54089 36114 ft 386 kts 331°
2026-05-04 17:59 37.91351 23.50883 36115 ft 387 kts 332°
2026-05-04 18:00 37.98445 23.45974 36112 ft 386 kts 331°
2026-05-04 18:00 38.03149 23.42711 36120 ft 387 kts 332°
2026-05-04 18:01 38.07804 23.39477 36118 ft 388 kts 331°
2026-05-04 18:01 38.12340 23.36321 36118 ft 389 kts 332°
2026-05-04 18:02 38.19313 23.31460 36114 ft 387 kts 331°
2026-05-04 18:02 38.24082 23.28130 36122 ft 388 kts 330°
2026-05-04 18:03 38.28806 23.24825 36128 ft 388 kts 331°
2026-05-04 18:03 38.33524 23.21522 36129 ft 388 kts 330°
2026-05-04 18:04 38.38256 23.18203 36127 ft 388 kts 331°
2026-05-04 18:05 38.45336 23.13229 36124 ft 389 kts 331°
2026-05-04 18:05 38.50098 23.09877 36116 ft 389 kts 330°
2026-05-04 18:06 38.57172 23.04887 36124 ft 386 kts 331°
2026-05-04 18:06 38.61869 23.01566 36120 ft 386 kts 331°
2026-05-04 18:07 38.66558 22.98248 36118 ft 385 kts 331°
2026-05-04 18:07 38.71256 22.94919 36120 ft 387 kts 331°
2026-05-04 18:08 38.75996 22.91555 36118 ft 389 kts 331°
2026-05-04 18:08 38.80720 22.88196 36117 ft 386 kts 331°
2026-05-04 18:09 38.90129 22.81492 36126 ft 389 kts 331°
2026-05-04 18:10 38.94848 22.78120 36128 ft 387 kts 331°
2026-05-04 18:10 38.99557 22.74750 36129 ft 386 kts 331°
2026-05-04 18:11 39.04252 22.71388 36132 ft 388 kts 331°
2026-05-04 18:11 39.08994 22.67985 36117 ft 390 kts 331°
2026-05-04 18:12 39.13387 22.64829 36125 ft 389 kts 331°
2026-05-04 18:12 39.18003 22.61504 36123 ft 390 kts 331°
2026-05-04 18:13 39.22731 22.58096 36119 ft 391 kts 331°
2026-05-04 18:14 39.29843 22.52960 36121 ft 390 kts 331°
2026-05-04 18:14 39.34571 22.49540 36119 ft 389 kts 331°
2026-05-04 18:15 39.44068 22.42652 36125 ft 391 kts 331°
2026-05-04 18:16 39.48810 22.39203 36124 ft 392 kts 331°
2026-05-04 18:16 39.53555 22.35748 36122 ft 392 kts 331°
2026-05-04 18:17 39.60558 22.30638 36121 ft 392 kts 331°
2026-05-04 18:18 39.67726 22.25397 36122 ft 394 kts 331°
2026-05-04 18:18 39.72507 22.21894 36117 ft 394 kts 331°
2026-05-04 18:19 39.79644 22.16651 36121 ft 392 kts 331°
2026-05-04 18:19 39.84411 22.13145 36117 ft 395 kts 330°
2026-05-04 18:20 39.89172 22.09636 36118 ft 393 kts 331°
2026-05-04 18:20 39.93936 22.06119 36123 ft 395 kts 331°
2026-05-04 18:21 39.98722 22.02580 36126 ft 394 kts 331°
2026-05-04 18:21 40.03495 21.99045 36129 ft 395 kts 331°
2026-05-04 18:22 40.08290 21.95487 36126 ft 394 kts 331°
2026-05-04 18:22 40.12569 21.92310 36129 ft 395 kts 331°
2026-05-04 18:23 40.17351 21.88752 36132 ft 395 kts 331°
2026-05-04 18:23 40.22347 21.85028 36139 ft 395 kts 331°
2026-05-04 18:24 40.27127 21.81461 36138 ft 395 kts 331°
2026-05-04 18:24 40.31895 21.77894 36146 ft 395 kts 331°
2026-05-04 18:25 40.36674 21.74316 36144 ft 397 kts 331°
2026-05-04 18:25 40.41480 21.70710 36142 ft 395 kts 331°
2026-05-04 18:26 40.46259 21.67118 36147 ft 396 kts 331°
2026-05-04 18:26 40.51037 21.63522 36146 ft 395 kts 331°
2026-05-04 18:27 40.55824 21.59913 36148 ft 395 kts 331°
2026-05-04 18:27 40.60609 21.56299 36145 ft 397 kts 331°
2026-05-04 18:28 40.65398 21.52677 36148 ft 396 kts 331°
2026-05-04 18:28 40.70178 21.49053 36149 ft 396 kts 331°
2026-05-04 18:29 40.75008 21.45387 36148 ft 397 kts 331°
2026-05-04 18:29 40.79760 21.41738 36147 ft 397 kts 328°
2026-05-04 18:30 40.86035 21.34513 36155 ft 400 kts 317°
2026-05-04 18:31 40.89740 21.29756 36149 ft 399 kts 318°
2026-05-04 18:31 40.93909 21.24524 36151 ft 399 kts 319°
2026-05-04 18:32 40.97975 21.19513 36148 ft 398 kts 319°
2026-05-04 18:32 41.02085 21.14480 36150 ft 399 kts 319°
2026-05-04 18:33 41.06175 21.09472 36146 ft 399 kts 319°
2026-05-04 18:33 41.10276 21.04443 36153 ft 399 kts 319°
2026-05-04 18:34 41.18011 20.94935 36160 ft 398 kts 319°
2026-05-04 18:35 41.22051 20.89959 36164 ft 398 kts 319°
2026-05-04 18:35 41.26124 20.84925 36135 ft 398 kts 319°
2026-05-04 18:36 41.30177 20.79882 36162 ft 400 kts 319°
2026-05-04 18:36 41.34232 20.74872 36156 ft 398 kts 319°
2026-05-04 18:37 41.38217 20.69938 36155 ft 399 kts 319°
2026-05-04 18:37 41.42301 20.64867 36156 ft 399 kts 319°
2026-05-04 18:38 41.46365 20.59809 36152 ft 399 kts 319°
2026-05-04 18:38 41.50402 20.54772 36146 ft 398 kts 319°
2026-05-04 18:39 41.54434 20.49733 36148 ft 399 kts 319°
2026-05-04 18:39 41.58497 20.44645 36147 ft 398 kts 319°
2026-05-04 18:40 41.62534 20.39581 36153 ft 399 kts 319°
2026-05-04 18:40 41.66589 20.34486 36152 ft 400 kts 319°
2026-05-04 18:41 41.70564 20.29481 36146 ft 399 kts 318°
2026-05-04 18:41 41.74596 20.24396 36140 ft 399 kts 319°
2026-05-04 18:42 41.78665 20.19252 36141 ft 401 kts 318°
2026-05-04 18:42 41.82704 20.14138 36133 ft 399 kts 318°
2026-05-04 18:43 41.86758 20.08996 36135 ft 401 kts 318°
2026-05-04 18:43 41.90823 20.03831 36134 ft 401 kts 318°
2026-05-04 18:44 41.94868 19.98683 36128 ft 402 kts 318°
2026-05-04 18:44 41.98943 19.93488 36133 ft 403 kts 318°
2026-05-04 18:45 42.02915 19.88413 36130 ft 401 kts 318°
2026-05-04 18:45 42.06982 19.83208 36130 ft 401 kts 318°
2026-05-04 18:46 42.10767 19.78354 36137 ft 400 kts 318°
2026-05-04 18:46 42.14677 19.73331 36137 ft 401 kts 318°
2026-05-04 18:47 42.19149 19.67574 36141 ft 399 kts 318°
2026-05-04 18:47 42.23163 19.62400 36146 ft 401 kts 318°
2026-05-04 18:48 42.27224 19.57156 36138 ft 402 kts 318°
2026-05-04 18:48 42.30565 19.52833 36141 ft 401 kts 318°
2026-05-04 18:49 42.35272 19.46728 36144 ft 400 kts 318°
2026-05-04 18:49 42.39283 19.41517 36145 ft 400 kts 318°
2026-05-04 18:50 42.43285 19.36309 36141 ft 399 kts 318°
2026-05-04 18:50 42.47226 19.31172 36142 ft 400 kts 317°
2026-05-04 18:50 42.49256 19.28523 36245 ft 403 kts 317°
2026-05-04 18:51 42.51269 19.25892 36482 ft 404 kts 317°
2026-05-04 18:51 42.53271 19.23273 36785 ft 404 kts 317°
2026-05-04 18:51 42.55302 19.20614 37106 ft 403 kts 317°
2026-05-04 18:51 42.57314 19.17976 37472 ft 402 kts 317°
2026-05-04 18:52 42.59340 19.15318 37720 ft 403 kts 317°
2026-05-04 18:52 42.61358 19.12668 38031 ft 402 kts 317°
2026-05-04 18:52 42.63350 19.10050 38169 ft 404 kts 317°
2026-05-04 18:53 42.67404 19.04715 38172 ft 403 kts 317°
2026-05-04 18:53 42.71417 18.99421 38172 ft 402 kts 317°
2026-05-04 18:54 42.75452 18.94089 38173 ft 402 kts 317°
2026-05-04 18:54 42.79459 18.88784 38175 ft 403 kts 317°
2026-05-04 18:55 42.83226 18.83787 38175 ft 402 kts 317°
2026-05-04 18:55 42.89261 18.75764 38173 ft 404 kts 317°
2026-05-04 18:56 42.93279 18.70410 38177 ft 404 kts 317°
2026-05-04 18:56 42.97284 18.65065 38177 ft 403 kts 316°
2026-05-04 18:57 43.01306 18.59684 38176 ft 404 kts 317°
2026-05-04 18:57 43.05320 18.54304 38178 ft 403 kts 317°
2026-05-04 18:58 43.09344 18.48902 38174 ft 404 kts 316°
2026-05-04 18:58 43.13231 18.43673 38170 ft 404 kts 316°
2026-05-04 18:59 43.17125 18.38422 38167 ft 404 kts 316°
2026-05-04 18:59 43.21020 18.33161 38159 ft 404 kts 316°
2026-05-04 19:00 43.24262 18.28776 38152 ft 403 kts 316°
2026-05-04 19:00 43.28914 18.22469 38141 ft 403 kts 316°
2026-05-04 19:01 43.32226 18.17972 38133 ft 402 kts 316°
2026-05-04 19:01 43.36865 18.11660 38139 ft 404 kts 316°
2026-05-04 19:02 43.40859 18.06214 38139 ft 404 kts 315°
2026-05-04 19:02 43.44845 18.00768 38142 ft 404 kts 315°
2026-05-04 19:03 43.48829 17.95314 38140 ft 404 kts 315°
2026-05-04 19:03 43.52811 17.89853 38144 ft 404 kts 315°
2026-05-04 19:04 43.56809 17.84359 38129 ft 403 kts 315°
2026-05-04 19:04 43.60085 17.79848 38121 ft 404 kts 315°
2026-05-04 19:05 43.64746 17.73419 38117 ft 404 kts 315°
2026-05-04 19:05 43.68711 17.67938 38124 ft 403 kts 315°
2026-05-04 19:06 43.72681 17.62438 38133 ft 404 kts 315°
2026-05-04 19:06 43.76640 17.56941 38145 ft 404 kts 315°
2026-05-04 19:07 43.80604 17.51428 38146 ft 404 kts 315°
2026-05-04 19:07 43.84568 17.45904 38145 ft 406 kts 315°
2026-05-04 19:08 43.88539 17.40360 38142 ft 406 kts 315°
2026-05-04 19:08 43.92470 17.34862 38146 ft 405 kts 314°
2026-05-04 19:09 43.96417 17.29330 38148 ft 405 kts 314°
2026-05-04 19:09 44.00361 17.23788 38156 ft 405 kts 314°
2026-05-04 19:10 44.03678 17.19120 38156 ft 405 kts 314°
2026-05-04 19:10 44.07647 17.13524 38148 ft 407 kts 314°
2026-05-04 19:11 44.12219 17.07062 38150 ft 407 kts 314°
2026-05-04 19:11 44.16087 17.01585 38154 ft 406 kts 314°
2026-05-04 19:12 44.21934 16.93284 38134 ft 406 kts 314°
2026-05-04 19:13 44.25893 16.87651 38141 ft 406 kts 314°
2026-05-04 19:13 44.29870 16.81979 38131 ft 408 kts 314°
2026-05-04 19:14 44.33833 16.76317 38130 ft 406 kts 314°
2026-05-04 19:14 44.37772 16.70678 38129 ft 407 kts 314°
2026-05-04 19:15 44.41718 16.65015 38132 ft 407 kts 314°
2026-05-04 19:15 44.45654 16.59355 38124 ft 408 kts 314°
2026-05-04 19:16 44.49611 16.53655 38124 ft 409 kts 314°
2026-05-04 19:16 44.53582 16.47922 38127 ft 407 kts 314°
2026-05-04 19:17 44.57510 16.42238 38125 ft 407 kts 314°
2026-05-04 19:17 44.61446 16.36532 38127 ft 408 kts 314°
2026-05-04 19:18 44.65268 16.30980 38123 ft 409 kts 313°
2026-05-04 19:18 44.69306 16.25102 38117 ft 410 kts 313°
2026-05-04 19:19 44.73230 16.19377 38112 ft 410 kts 313°
2026-05-04 19:19 44.76526 16.14558 38104 ft 410 kts 313°
2026-05-04 19:20 44.81137 16.07805 38098 ft 410 kts 313°
2026-05-04 19:20 44.85085 16.02007 38085 ft 411 kts 313°
2026-05-04 19:21 44.88379 15.97163 38087 ft 411 kts 313°
2026-05-04 19:21 44.93009 15.90339 38077 ft 412 kts 313°
2026-05-04 19:22 44.96973 15.84482 38079 ft 411 kts 313°
2026-05-04 19:22 45.00921 15.78637 38079 ft 412 kts 313°
2026-05-04 19:23 45.04836 15.72828 38078 ft 412 kts 313°
2026-05-04 19:23 45.08823 15.66899 38074 ft 412 kts 313°
2026-05-04 19:24 45.12452 15.61494 38081 ft 412 kts 313°
2026-05-04 19:24 45.16307 15.55738 38078 ft 413 kts 313°
2026-05-04 19:25 45.19711 15.50646 38068 ft 412 kts 313°
2026-05-04 19:25 45.23779 15.44549 38073 ft 413 kts 313°
2026-05-04 19:26 45.27705 15.38651 38071 ft 413 kts 313°
2026-05-04 19:26 45.31654 15.32707 38073 ft 412 kts 312°
2026-05-04 19:27 45.35353 15.27126 38071 ft 413 kts 312°
2026-05-04 19:27 45.39327 15.21117 38077 ft 411 kts 312°
2026-05-04 19:28 45.43265 15.15151 38077 ft 412 kts 311°
2026-05-04 19:28 45.47193 15.09189 38085 ft 414 kts 311°
2026-05-04 19:29 45.51138 15.03186 38076 ft 412 kts 311°
2026-05-04 19:29 45.55063 14.97197 38080 ft 413 kts 311°
2026-05-04 19:30 45.59004 14.91173 38084 ft 415 kts 311°
2026-05-04 19:30 45.62915 14.85182 38085 ft 413 kts 312°
2026-05-04 19:31 45.66846 14.79148 38089 ft 415 kts 311°
2026-05-04 19:31 45.70800 14.73067 38088 ft 414 kts 311°
2026-05-04 19:32 45.74729 14.67007 38087 ft 415 kts 311°
2026-05-04 19:32 45.78637 14.60967 38095 ft 414 kts 311°
2026-05-04 19:33 45.82555 14.54898 38090 ft 414 kts 311°
2026-05-04 19:33 45.86474 14.48814 38092 ft 414 kts 311°
2026-05-04 19:34 45.90422 14.42670 38087 ft 416 kts 311°
2026-05-04 19:34 45.94309 14.36611 38088 ft 415 kts 311°
2026-05-04 19:35 45.98021 14.30811 38094 ft 415 kts 311°
2026-05-04 19:35 46.01878 14.24770 38087 ft 414 kts 311°
2026-05-04 19:36 46.05505 14.19076 38096 ft 414 kts 310°
2026-05-04 19:36 46.09402 14.12946 38096 ft 415 kts 310°
2026-05-04 19:37 46.13213 14.06939 38097 ft 415 kts 310°
2026-05-04 19:37 46.17011 14.00939 38110 ft 415 kts 310°
2026-05-04 19:38 46.20798 13.94943 38117 ft 416 kts 310°
2026-05-04 19:38 46.24725 13.88711 38113 ft 417 kts 310°
2026-05-04 19:39 46.28606 13.82536 38116 ft 417 kts 310°
2026-05-04 19:39 46.32513 13.76309 38114 ft 416 kts 310°
2026-05-04 19:40 46.36443 13.70031 38107 ft 417 kts 310°
2026-05-04 19:40 46.40351 13.63773 38100 ft 417 kts 310°
2026-05-04 19:41 46.44234 13.57541 38094 ft 417 kts 310°
2026-05-04 19:41 46.48103 13.51316 38096 ft 417 kts 310°
2026-05-04 19:42 46.51831 13.45303 38099 ft 418 kts 310°
2026-05-04 19:42 46.55711 13.39002 38102 ft 418 kts 309°
2026-05-04 19:43 46.59119 13.32304 38104 ft 414 kts 301°
2026-05-04 19:43 46.62079 13.25594 38104 ft 416 kts 300°
2026-05-04 19:44 46.65048 13.18750 38106 ft 417 kts 300°
2026-05-04 19:44 46.68250 13.11438 38097 ft 417 kts 301°
2026-05-04 19:45 46.71402 13.04294 38107 ft 417 kts 301°
2026-05-04 19:45 46.74547 12.97178 38112 ft 416 kts 301°
2026-05-04 19:46 46.77587 12.90293 38126 ft 417 kts 301°
2026-05-04 19:46 46.80736 12.83143 38105 ft 417 kts 301°
2026-05-04 19:47 46.83877 12.75996 38116 ft 416 kts 301°
2026-05-04 19:47 46.87008 12.68850 38110 ft 417 kts 301°
2026-05-04 19:48 46.90160 12.61641 38111 ft 418 kts 301°
2026-05-04 19:48 46.93297 12.54450 38137 ft 419 kts 301°
2026-05-04 19:49 46.96432 12.47240 38141 ft 418 kts 301°
2026-05-04 19:49 46.99567 12.40015 38128 ft 417 kts 301°
2026-05-04 19:50 47.02628 12.32941 38106 ft 418 kts 300°
2026-05-04 19:50 47.05450 12.26402 38111 ft 418 kts 300°
2026-05-04 19:51 47.08586 12.19114 38112 ft 419 kts 300°
2026-05-04 19:51 47.11661 12.11954 38114 ft 419 kts 300°
2026-05-04 19:52 47.14614 12.05061 38103 ft 419 kts 300°
2026-05-04 19:52 47.17631 11.97999 38103 ft 419 kts 299°
2026-05-04 19:53 47.20534 11.91190 38093 ft 419 kts 300°
2026-05-04 19:53 47.23063 11.84875 38095 ft 418 kts 296°
2026-05-04 19:54 47.25724 11.77303 38094 ft 418 kts 294°
2026-05-04 19:54 47.28334 11.69688 38116 ft 418 kts 295°
2026-05-04 19:55 47.30887 11.62313 38090 ft 418 kts 295°
2026-05-04 19:55 47.33548 11.54686 38090 ft 418 kts 295°
2026-05-04 19:56 47.36221 11.47039 38077 ft 418 kts 295°
2026-05-04 19:56 47.38866 11.39462 38065 ft 418 kts 295°
2026-05-04 19:57 47.41490 11.31928 38075 ft 417 kts 294°
2026-05-04 19:57 47.44122 11.24354 38071 ft 417 kts 294°
2026-05-04 19:58 47.46785 11.16669 38074 ft 418 kts 294°
2026-05-04 19:58 47.49632 11.09178 38067 ft 423 kts 307°
2026-05-04 19:58 47.51782 11.06246 38094 ft 428 kts 321°
2026-05-04 19:59 47.54237 11.03764 38098 ft 430 kts 324°
2026-05-04 19:59 47.59295 10.99009 38092 ft 430 kts 324°
2026-05-04 20:00 47.65219 10.93494 38040 ft 432 kts 324°
2026-05-04 20:00 47.70330 10.88720 38013 ft 433 kts 324°
2026-05-04 20:01 47.74569 10.84749 38002 ft 432 kts 324°
2026-05-04 20:01 47.79566 10.80054 38003 ft 431 kts 324°
2026-05-04 20:02 47.84641 10.75269 37993 ft 432 kts 324°
2026-05-04 20:02 47.89785 10.70616 37991 ft 435 kts 331°
2026-05-04 20:03 47.95419 10.67273 37980 ft 439 kts 338°
2026-05-04 20:03 48.01107 10.64453 37981 ft 439 kts 339°
2026-05-04 20:04 48.06923 10.61641 37981 ft 441 kts 339°
2026-05-04 20:04 48.12775 10.58818 37979 ft 441 kts 339°
2026-05-04 20:05 48.18594 10.56016 37975 ft 442 kts 339°
2026-05-04 20:05 48.24405 10.53220 37966 ft 442 kts 339°
2026-05-04 20:06 48.30246 10.50408 37972 ft 441 kts 339°
2026-05-04 20:06 48.36074 10.47605 37965 ft 439 kts 339°
2026-05-04 20:07 48.41887 10.44802 37964 ft 441 kts 339°
2026-05-04 20:07 48.47673 10.41799 37969 ft 437 kts 332°
2026-05-04 20:08 48.52710 10.36843 37965 ft 431 kts 313°
2026-05-04 20:08 48.56678 10.30246 37967 ft 425 kts 303°
2026-05-04 20:09 48.59842 10.22931 37970 ft 422 kts 296°
2026-05-04 20:09 48.62792 10.15197 37975 ft 423 kts 296°
2026-05-04 20:10 48.65725 10.07561 37982 ft 422 kts 297°
2026-05-04 20:10 48.68721 9.99933 37984 ft 422 kts 297°
2026-05-04 20:11 48.71735 9.92338 37977 ft 421 kts 297°
2026-05-04 20:11 48.74900 9.84823 37979 ft 423 kts 301°
2026-05-04 20:12 48.78293 9.77478 37974 ft 425 kts 301°
2026-05-04 20:12 48.82254 9.68963 37977 ft 426 kts 301°
2026-05-04 20:13 48.85056 9.62813 37978 ft 426 kts 301°
2026-05-04 20:13 48.88379 9.55352 37970 ft 426 kts 300°
2026-05-04 20:14 48.91691 9.47874 37966 ft 426 kts 301°
2026-05-04 20:14 48.95002 9.40393 37953 ft 425 kts 301°
2026-05-04 20:15 48.98301 9.32934 37961 ft 426 kts 300°
2026-05-04 20:15 49.01586 9.25555 37951 ft 427 kts 300°
2026-05-04 20:16 49.04920 9.18058 37949 ft 427 kts 300°
2026-05-04 20:16 49.08225 9.10595 37951 ft 427 kts 300°
2026-05-04 20:17 49.11536 9.03087 37951 ft 428 kts 300°
2026-05-04 20:17 49.14814 8.95629 37952 ft 428 kts 300°
2026-05-04 20:18 49.18092 8.88148 37951 ft 428 kts 300°
2026-05-04 20:18 49.21377 8.80626 37950 ft 427 kts 300°
2026-05-04 20:19 49.24659 8.73092 37952 ft 428 kts 300°
2026-05-04 20:19 49.27947 8.65517 37959 ft 428 kts 300°
2026-05-04 20:20 49.31189 8.58030 37956 ft 427 kts 300°
2026-05-04 20:20 49.34364 8.50673 37962 ft 428 kts 300°
2026-05-04 20:21 49.37606 8.43144 37963 ft 428 kts 300°
2026-05-04 20:21 49.42162 8.32531 37971 ft 428 kts 299°
2026-05-04 20:22 49.45468 8.24805 37965 ft 428 kts 299°
2026-05-04 20:22 49.48898 8.16766 37969 ft 428 kts 299°
2026-05-04 20:23 49.52140 8.09142 37977 ft 428 kts 299°
2026-05-04 20:23 49.55362 8.01549 37973 ft 427 kts 299°
2026-05-04 20:24 49.58608 7.93876 37974 ft 428 kts 299°
2026-05-04 20:24 49.61822 7.86253 37955 ft 428 kts 299°
2026-05-04 20:25 49.65046 7.78583 37973 ft 429 kts 299°
2026-05-04 20:25 49.68261 7.70916 37972 ft 428 kts 299°
2026-05-04 20:26 49.71452 7.63278 37969 ft 431 kts 299°
2026-05-04 20:26 49.74682 7.55532 37971 ft 430 kts 298°
2026-05-04 20:27 49.77872 7.47856 37966 ft 430 kts 299°
2026-05-04 20:27 49.81085 7.40104 37968 ft 428 kts 299°
2026-05-04 20:28 49.84012 7.33022 37971 ft 429 kts 298°
2026-05-04 20:28 49.87645 7.24202 37977 ft 430 kts 298°
2026-05-04 20:29 49.90852 7.16395 37975 ft 430 kts 298°
2026-05-04 20:29 49.94018 7.08662 37971 ft 432 kts 298°
2026-05-04 20:30 49.97147 7.01001 37974 ft 431 kts 298°
2026-05-04 20:30 50.00265 6.93341 37974 ft 432 kts 298°
2026-05-04 20:31 50.03354 6.85734 37971 ft 431 kts 298°
2026-05-04 20:31 50.06481 6.78009 37968 ft 430 kts 298°
2026-05-04 20:32 50.09646 6.70166 37968 ft 430 kts 298°
2026-05-04 20:32 50.12692 6.62598 37964 ft 430 kts 298°
2026-05-04 20:33 50.15604 6.55341 37964 ft 430 kts 298°
2026-05-04 20:33 50.18747 6.47485 37958 ft 432 kts 298°
2026-05-04 20:34 50.21404 6.40824 37958 ft 432 kts 298°
2026-05-04 20:34 50.24632 6.32711 37955 ft 431 kts 297°
2026-05-04 20:35 50.27728 6.24908 37950 ft 431 kts 297°
2026-05-04 20:35 50.30882 6.16933 37947 ft 432 kts 297°
2026-05-04 20:36 50.34040 6.08924 37952 ft 431 kts 297°
2026-05-04 20:36 50.37160 6.00987 37944 ft 430 kts 297°
2026-05-04 20:37 50.40263 5.93066 37941 ft 431 kts 297°
2026-05-04 20:37 50.43395 5.85045 37944 ft 431 kts 297°
2026-05-04 20:38 50.46497 5.77079 37943 ft 431 kts 297°
2026-05-04 20:38 50.49604 5.69078 37948 ft 431 kts 297°
2026-05-04 20:39 50.52717 5.61034 37949 ft 431 kts 298°
2026-05-04 20:39 50.55831 5.52964 37954 ft 431 kts 298°
2026-05-04 20:40 50.58812 5.45215 37949 ft 430 kts 298°
2026-05-04 20:40 50.61856 5.37277 37949 ft 430 kts 298°
2026-05-04 20:41 50.64846 5.29455 37954 ft 430 kts 297°
2026-05-04 20:41 50.68007 5.21160 37948 ft 430 kts 297°
2026-05-04 20:42 50.71080 5.13073 37948 ft 431 kts 297°
2026-05-04 20:42 50.74108 5.05077 37947 ft 430 kts 297°
2026-05-04 20:43 50.77152 4.97012 37941 ft 430 kts 297°
2026-05-04 20:43 50.80082 4.89228 37949 ft 430 kts 297°
2026-05-04 20:44 50.83077 4.81248 37946 ft 430 kts 297°
2026-05-04 20:44 50.86047 4.73309 37950 ft 430 kts 297°
2026-05-04 20:45 50.88658 4.66307 37953 ft 432 kts 297°
2026-05-04 20:45 50.92049 4.57188 37954 ft 432 kts 297°
2026-05-04 20:46 50.95062 4.49057 37953 ft 432 kts 297°
2026-05-04 20:46 50.98102 4.40832 37952 ft 431 kts 297°
2026-05-04 20:47 51.00851 4.33369 37954 ft 431 kts 297°
2026-05-04 20:47 51.03871 4.25145 37953 ft 431 kts 297°
2026-05-04 20:48 51.06870 4.16950 37952 ft 432 kts 297°
2026-05-04 20:48 51.09875 4.08711 37952 ft 433 kts 297°
2026-05-04 20:49 51.12878 4.00453 37951 ft 433 kts 297°
2026-05-04 20:49 51.15827 3.92320 37945 ft 433 kts 297°
2026-05-04 20:50 51.17345 3.88123 37844 ft 432 kts 297°
2026-05-04 20:50 51.18816 3.84049 37500 ft 428 kts 297°
2026-05-04 20:50 51.20310 3.79908 37008 ft 426 kts 297°
2026-05-04 20:50 51.21715 3.76002 36439 ft 427 kts 297°
2026-05-04 20:51 51.23175 3.71938 35987 ft 428 kts 296°
2026-05-04 20:51 51.24644 3.67841 35532 ft 430 kts 296°
2026-05-04 20:51 51.26110 3.63746 35246 ft 424 kts 296°
2026-05-04 20:51 51.27474 3.59942 34953 ft 416 kts 296°
2026-05-04 20:52 51.28852 3.56091 34339 ft 410 kts 296°
2026-05-04 20:52 51.30222 3.52253 33686 ft 406 kts 297°
2026-05-04 20:52 51.31580 3.48435 32988 ft 402 kts 296°
2026-05-04 20:52 51.32899 3.44723 32344 ft 398 kts 297°
2026-05-04 20:53 51.34249 3.40916 31788 ft 391 kts 297°
2026-05-04 20:53 51.35568 3.37191 31339 ft 385 kts 297°
2026-05-04 20:53 51.36684 3.34035 30909 ft 383 kts 296°
2026-05-04 20:53 51.38001 3.30307 30412 ft 380 kts 296°
2026-05-04 20:54 51.39269 3.26713 29967 ft 377 kts 296°
2026-05-04 20:54 51.40545 3.23092 29502 ft 373 kts 297°
2026-05-04 20:54 51.41801 3.19524 29049 ft 369 kts 297°
2026-05-04 20:54 51.43057 3.15951 28604 ft 368 kts 297°
2026-05-04 20:55 51.44252 3.12273 28129 ft 369 kts 293°
2026-05-04 20:55 51.45226 3.08550 27969 ft 362 kts 289°
2026-05-04 20:55 51.46134 3.04745 27987 ft 365 kts 288°
2026-05-04 20:55 51.47007 3.00953 27980 ft 368 kts 288°
2026-05-04 20:56 51.47883 2.97075 27960 ft 368 kts 288°
2026-05-04 20:56 51.48748 2.93209 27699 ft 369 kts 288°
2026-05-04 20:56 51.49613 2.89341 27422 ft 365 kts 288°
2026-05-04 20:56 51.50463 2.85540 27146 ft 361 kts 288°
2026-05-04 20:57 51.51304 2.81780 26872 ft 360 kts 288°
2026-05-04 20:57 51.52145 2.78031 26606 ft 360 kts 288°
2026-05-04 20:57 51.52943 2.74460 26347 ft 358 kts 288°
2026-05-04 20:57 51.53869 2.70714 26065 ft 356 kts 295°
2026-05-04 20:58 51.55116 2.67320 25798 ft 356 kts 303°
2026-05-04 20:58 51.56584 2.64073 25526 ft 355 kts 306°
2026-05-04 20:58 51.58081 2.60936 25252 ft 353 kts 306°
2026-05-04 20:58 51.59592 2.57754 24976 ft 351 kts 306°
2026-05-04 20:59 51.61044 2.54638 24709 ft 349 kts 305°
2026-05-04 20:59 51.62483 2.51480 24438 ft 346 kts 305°
2026-05-04 20:59 51.63897 2.48322 24167 ft 344 kts 304°
2026-05-04 20:59 51.65287 2.45183 23899 ft 343 kts 304°
2026-05-04 21:00 51.66665 2.42051 23632 ft 342 kts 304°
2026-05-04 21:00 51.68034 2.38921 23366 ft 341 kts 304°
2026-05-04 21:00 51.69379 2.35837 23110 ft 340 kts 304°
2026-05-04 21:00 51.70513 2.33234 22888 ft 338 kts 303°
2026-05-04 21:01 51.71898 2.30047 22619 ft 337 kts 303°
2026-05-04 21:01 51.73235 2.26967 22356 ft 337 kts 303°
2026-05-04 21:01 51.74574 2.23881 22098 ft 336 kts 304°
2026-05-04 21:01 51.75917 2.20779 21837 ft 335 kts 304°
2026-05-04 21:02 51.77231 2.17741 21585 ft 333 kts 304°
2026-05-04 21:02 51.78561 2.14663 21236 ft 334 kts 304°
2026-05-04 21:02 51.79894 2.11575 20837 ft 332 kts 303°
2026-05-04 21:02 51.81203 2.08540 20452 ft 329 kts 303°
2026-05-04 21:03 51.82424 2.05481 20065 ft 326 kts 296°
2026-05-04 21:03 51.83273 2.02040 19678 ft 325 kts 284°
2026-05-04 21:03 51.83762 1.98487 19304 ft 324 kts 281°
2026-05-04 21:03 51.84225 1.94937 18925 ft 323 kts 281°
2026-05-04 21:04 51.84698 1.91413 18599 ft 320 kts 281°
2026-05-04 21:04 51.85175 1.87907 18322 ft 320 kts 281°
2026-05-04 21:04 51.85657 1.84343 18021 ft 320 kts 281°
2026-05-04 21:04 51.86123 1.80886 17724 ft 318 kts 281°
2026-05-04 21:05 51.86567 1.77569 17437 ft 316 kts 281°
2026-05-04 21:05 51.87032 1.74088 17139 ft 315 kts 281°
2026-05-04 21:05 51.87492 1.70625 16838 ft 313 kts 281°
2026-05-04 21:05 51.87947 1.67193 16539 ft 312 kts 281°
2026-05-04 21:06 51.88369 1.64001 16260 ft 310 kts 281°
2026-05-04 21:06 51.88829 1.60508 15959 ft 309 kts 282°
2026-05-04 21:06 51.89280 1.57079 15663 ft 308 kts 282°
2026-05-04 21:06 51.89721 1.53718 15366 ft 307 kts 282°
2026-05-04 21:07 51.90165 1.50324 15065 ft 306 kts 282°
2026-05-04 21:07 51.90602 1.46983 14766 ft 304 kts 282°
2026-05-04 21:07 51.91042 1.43609 14462 ft 302 kts 282°
2026-05-04 21:07 51.91475 1.40283 14162 ft 301 kts 282°
2026-05-04 21:08 51.91906 1.36965 13860 ft 299 kts 282°
2026-05-04 21:08 51.92328 1.33704 13564 ft 297 kts 282°
2026-05-04 21:08 51.92750 1.30440 13266 ft 296 kts 282°
2026-05-04 21:08 51.93176 1.27157 12964 ft 294 kts 282°
2026-05-04 21:09 51.93582 1.24010 12672 ft 292 kts 282°
2026-05-04 21:09 51.93997 1.20783 12372 ft 291 kts 282°
2026-05-04 21:09 51.94405 1.17594 12120 ft 288 kts 282°
2026-05-04 21:09 51.94811 1.14402 11867 ft 288 kts 282°
2026-05-04 21:10 51.95216 1.11212 11614 ft 286 kts 282°
2026-05-04 21:10 51.95614 1.08086 11361 ft 286 kts 282°
2026-05-04 21:10 51.96019 1.04905 11111 ft 285 kts 282°
2026-05-04 21:10 51.96417 1.01767 10859 ft 284 kts 281°
2026-05-04 21:11 51.96812 0.98633 10605 ft 283 kts 281°
2026-05-04 21:11 51.97203 0.95522 10354 ft 281 kts 281°
2026-05-04 21:11 51.97598 0.92406 10099 ft 280 kts 282°
2026-05-04 21:11 51.97988 0.89324 9846 ft 279 kts 282°
2026-05-04 21:12 51.98383 0.86199 9593 ft 279 kts 282°
2026-05-04 21:12 51.98764 0.83160 9349 ft 277 kts 281°
2026-05-04 21:12 51.99144 0.80082 9093 ft 276 kts 281°
2026-05-04 21:12 51.99518 0.77033 8848 ft 275 kts 281°
2026-05-04 21:13 51.99889 0.74010 8595 ft 274 kts 282°
2026-05-04 21:13 52.00122 0.70936 8399 ft 273 kts 270°
2026-05-04 21:13 51.99970 0.67843 8279 ft 275 kts 263°
2026-05-04 21:13 51.99685 0.64785 8150 ft 276 kts 262°
2026-05-04 21:14 51.99373 0.61707 8030 ft 275 kts 262°
2026-05-04 21:14 51.99060 0.58654 8027 ft 275 kts 262°
2026-05-04 21:14 51.98743 0.55575 8023 ft 276 kts 262°
2026-05-04 21:14 51.98427 0.52512 7860 ft 277 kts 262°
2026-05-04 21:15 51.98109 0.49430 7704 ft 269 kts 262°
2026-05-04 21:15 51.97802 0.46479 7577 ft 259 kts 262°
2026-05-04 21:15 51.97507 0.43657 7434 ft 250 kts 262°
2026-05-04 21:15 51.97220 0.40920 7289 ft 244 kts 262°
2026-05-04 21:16 51.96934 0.38209 7132 ft 243 kts 262°
2026-05-04 21:16 51.96646 0.35488 6977 ft 244 kts 262°
2026-05-04 21:16 51.96366 0.32869 6861 ft 244 kts 261°
2026-05-04 21:16 51.95966 0.30233 6711 ft 245 kts 251°
2026-05-04 21:17 51.95314 0.27692 6580 ft 245 kts 246°
2026-05-04 21:17 51.94600 0.25177 6455 ft 245 kts 246°
2026-05-04 21:17 51.93884 0.22666 6326 ft 245 kts 246°
2026-05-04 21:17 51.93174 0.20173 6202 ft 244 kts 246°
2026-05-04 21:18 51.92456 0.17664 6074 ft 241 kts 246°
2026-05-04 21:18 51.91752 0.15200 5866 ft 237 kts 246°
2026-05-04 21:18 51.91064 0.12799 5383 ft 238 kts 246°
2026-05-04 21:18 51.90228 0.10480 4853 ft 239 kts 232°
2026-05-04 21:19 51.89083 0.08597 4375 ft 236 kts 222°
2026-05-04 21:19 51.87831 0.06843 3751 ft 238 kts 221°
2026-05-04 21:19 51.86599 0.05138 3373 ft 229 kts 221°
2026-05-04 21:19 51.85412 0.03490 3106 ft 217 kts 221°
2026-05-04 21:20 51.84300 0.01943 2984 ft 203 kts 221°
2026-05-04 21:20 51.83259 0.00498 2973 ft 196 kts 221°
2026-05-04 21:20 51.82206 -0.00932 2969 ft 197 kts 216°
2026-05-04 21:20 51.81031 -0.02047 2974 ft 196 kts 206°
2026-05-04 21:21 51.79774 -0.02785 2963 ft 196 kts 184°
2026-05-04 21:21 51.78457 -0.02362 2848 ft 193 kts 146°
2026-05-04 21:21 51.77402 -0.01036 2732 ft 190 kts 135°
2026-05-04 21:21 51.76462 0.00434 2597 ft 186 kts 121°
2026-05-04 21:22 51.76101 0.02287 2465 ft 169 kts 85°
2026-05-04 21:22 51.76221 0.04156 2343 ft 164 kts 72°
2026-05-04 21:22 51.76762 0.05742 2214 ft 161 kts 46°
2026-05-04 21:22 51.77539 0.07055 2087 ft 161 kts 44°
2026-05-04 21:23 51.78336 0.08318 1967 ft 159 kts 42°
2026-05-04 21:23 51.79155 0.09550 1972 ft 160 kts 41°
2026-05-04 21:23 51.79964 0.10755 1980 ft 159 kts 41°
2026-05-04 21:23 51.80772 0.11956 1972 ft 158 kts 41°
2026-05-04 21:24 51.81587 0.13169 1970 ft 159 kts 41°
2026-05-04 21:24 51.82395 0.14373 1796 ft 155 kts 41°
2026-05-04 21:24 51.83158 0.15511 1631 ft 143 kts 41°
2026-05-04 21:24 51.83902 0.16619 1374 ft 143 kts 41°
2026-05-04 21:25 51.84623 0.17695 1200 ft 143 kts 41°
2026-05-04 21:25 51.85361 0.18796 1003 ft 144 kts 41°
2026-05-04 21:25 51.86100 0.19898 809 ft 145 kts 41°
2026-05-04 21:25 51.86838 0.21000 605 ft 145 kts 40°
2026-05-04 21:26 51.87587 0.22117 408 ft 146 kts 41°
2026-05-04 21:26 51.88300 0.23183 343 ft 114 kts 41°
2026-05-04 21:26 51.88726 0.23818 340 ft 53 kts 44°
2026-05-04 21:26 51.88847 0.24081 339 ft 13 kts 61°
2026-05-04 21:27 51.88888 0.24248 339 ft 16 kts 70°
2026-05-04 21:27 51.88921 0.24427 339 ft 15 kts 73°
2026-05-04 21:27 51.88903 0.24540 339 ft 10 kts 93°
2026-05-04 21:27 51.88944 0.24625 340 ft 9 kts 42°
2026-05-04 21:28 51.89000 0.24708 341 ft 13 kts 42°
2026-05-04 21:28 51.89030 0.24823 341 ft 11 kts 118°
2026-05-04 21:28 51.88981 0.24934 340 ft 12 kts 104°
2026-05-04 21:28 51.88949 0.25056 340 ft 11 kts 131°
2026-05-04 21:29 51.88892 0.25156 339 ft 12 kts 133°
2026-05-04 21:29 51.88836 0.25254 339 ft 5 kts 130°
2026-05-04 21:29 51.88839 0.25301 339 ft 4 kts 48°
2026-05-04 21:29 51.88854 0.25324 339 ft 1 kts 43°
2026-05-04 21:30 51.88858 0.25330 339 ft 0 kts 43°